This is the latest recevied weather packets stored in our database for station/object KI4BSX. If no packets are shown the sender has not sent any weather packets the latest 10 day(s).
| Time | Temp. | Humidity | Pressure | Rain* | Wind** | Luminosity | Snow |
|---|---|---|---|---|---|---|---|
| 1778259562 | 21.67° C | 61% | 1019.4 hPa | 0 mm | - | - | - |
| 1778259260 | 21.11° C | 62% | 1019.6 hPa | 0 mm | - | - | - |
| 1778258955 | 21.11° C | 64% | 1019.6 hPa | 0 mm | - | - | - |
| 1778258653 | 21.67° C | 65% | 1019.6 hPa | 0 mm | - | - | - |
| 1778258350 | 20.56° C | 65% | 1019.8 hPa | 0 mm | - | - | - |
| 1778258048 | 20° C | 66% | 1019.7 hPa | 0 mm | - | - | - |
| 1778257743 | 20.56° C | 65% | 1019.9 hPa | 0 mm | - | - | - |
| 1778257441 | 20° C | 67% | 1019.9 hPa | 0 mm | - | - | - |
| 1778257137 | 21.11° C | 65% | 1019.9 hPa | 0 mm | - | - | - |
| 1778256835 | 20.56° C | 67% | 1020.1 hPa | 0 mm | - | - | - |
| 1778256532 | 20° C | 67% | 1020.3 hPa | 0 mm | - | - | - |
| 1778256231 | 20° C | 67% | 1020.1 hPa | 0 mm | - | - | - |
| 1778255926 | 19.44° C | 67% | 1020.3 hPa | 0 mm | - | - | - |
| 1778255624 | 20° C | 68% | 1020.4 hPa | 0 mm | - | - | - |
| 1778255321 | 20° C | 69% | 1020.4 hPa | 0 mm | - | - | - |
| 1778255018 | 19.44° C | 69% | 1020.4 hPa | 0 mm | - | - | - |
| 1778254714 | 19.44° C | 71% | 1020.3 hPa | 0 mm | - | - | - |
| 1778254412 | 19.44° C | 72% | 1020.4 hPa | 0 mm | - | - | - |
| 1778254108 | 19.44° C | 73% | 1020.8 hPa | 0 mm | - | - | - |
| 1778253804 | 18.89° C | 74% | 1020.8 hPa | 0 mm | - | - | - |
| 1778253501 | 19.44° C | 76% | 1020.6 hPa | 0 mm | - | - | - |
| 1778253198 | 19.44° C | 79% | 1020.8 hPa | 0 mm | - | - | - |
| 1778252894 | 18.89° C | 80% | 1020.8 hPa | 0 mm | - | - | - |
| 1778252591 | 18.89° C | 81% | 1021 hPa | 0 mm | - | - | - |
| 1778252287 | 18.89° C | 83% | 1020.9 hPa | 0 mm | - | - | - |
* Rain latest hour (hover to see other rain measurements)
** Current wind speed in m/s (hover to see current wind gust speed)